Mlle Alexiane Lepage

Mlle Alexiane Lepage

Statistiques 2026

  • Courses courues : 39
  • Nb de victoires : 6
  • Nb de places : 16
  • Écart gagnant : -
  • Réussite à la gagne : 15%
  • Réussite à la place : 41%
Musique : 1m 2m 8m 6m Dm Dm 1m 2m 2m 6m 3m 6m 1m 8m 5m Dm 3m Dm
DateRangCatégorieAlloc.Dist.HippodromeChevalRed. KmSpé.
18/10/14 2 Trot 22 000€ 2 800m Les Sables D'Olonne Vaillant Winner 1'15"5 Monté
18/10/14 5 Trot 23 000€ 2 775m Les Sables D'Olonne Ucayali de Tramon 1'16"6 Monté
17/10/14 7 Trot 50 000€ 2 850m Vincennes Salsa Glainoise 1'15"2 Monté lire

Vite en queue de peloton, a su gagner du terrain dans la phase finale mais sans jamais menacer les premiers.

15/10/14 7 Trot 22 000€ 2 875m Lyon Parilly Sephiro Flam 1'17"1 Monté lire

A perdu toutes chances sur une faute au départ.

12/10/14 1 Mixte 17 000€ 2 850m Nuille Sur Vicoin Ultreia Brissonais TNC Monté
06/10/14 D Mixte 20 000€ 2 725m Segre Tadzio de May Monté
05/10/14 2 Trot 18 000€ 2 675m Alencon Ultreia Brissonais Monté
04/10/14 4 Trot 20 000€ 2 875m Laval Venus d'Aunay 1'17"0 Monté
01/10/14 D Trot 24 000€ 2 425m Angers Sirocco de Chenu Monté lire

Longtemps en retrait, est venu en tête en face puis a faibli pour finir et a perdu après enquête le bénéfice de la troisième place.

30/09/14 6 Trot 22 000€ 2 850m Cabourg Voyou du Lerre 1'16"2 Monté
28/09/14 D Trot 13 000€ 2 450m Castillonnes Albatros du Layon Monté
26/09/14 0 Trot 20 000€ 2 850m Mauquenchy Voyou du Lerre Monté
24/09/14 D Trot 31 000€ 2 725m Graignes Rosetown Monté lire

Jamais en bonne position, a conclu en retrait et a perdu après enquête la septième place.

23/09/14 5 Trot 38 000€ 2 200m Vincennes Bella Beconnaise 1'17"8 Monté lire

A longtemps figuré au sein du peloton, puis s'est bien défendue pour finir, sans pouvoir menacer les premières.

21/09/14 D Trot 15 000€ 2 700m Graignes Venus d'Aunay Monté
19/09/14 5 Trot 14 000€ 2 875m Laval Albatros du Layon 1'20"0 Monté
17/09/14 1 Trot 20 000€ 2 550m Beaumont De Lomagne Toinou de Bellouet 1'16"3 Monté
16/09/14 4 Trot 26 000€ 2 875m Laval Sephiro Flam 1'16"2 Monté
14/09/14 D Trot 14 000€ 2 575m Chalons En Champagne Ustang du Layon Monté
13/09/14 6 Trot 18 000€ 2 875m Bagnoles De L'Orne Triomphe Jenilou Monté
11/09/14 8 Trot 22 000€ 2 800m Les Sables D'Olonne Rami Prior 1'17"0 Monté
09/09/14 9 Trot 22 000€ 2 600m Le Mont Saint Michel Vida du Vivier 1'17"3 Attelé
07/09/14 4 Trot 20 000€ 2 625m Villeneuve Sur Lot Sephiro Flam 1'19"4 Monté
06/09/14 6 Trot 25 000€ 2 800m Moulins La Marche Ustang du Layon Monté
06/09/14 3 Trot 10 000€ 2 225m Moulins La Marche Borsalino du Mont Monté
02/09/14 5 Trot 18 000€ 2 875m Argentan Aristo Quetterie 1'20"4 Monté
31/08/14 3 Trot 15 000€ 2 725m Thouars Sephiro Flam Monté
27/08/14 0 Trot 14 000€ 2 775m Les Sables D'Olonne Ustang du Layon Monté
26/08/14 D Trot 25 000€ 2 900m Laval Rosetown Monté
24/08/14 1 Trot 20 000€ 2 850m Carentan Ucayali de Tramon TNC Monté
24/08/14 D Trot 13 000€ 2 850m Carentan Vas Y Mon Kiki Monté
22/08/14 D Trot 12 000€ 2 100m Pornichet La Baule Avantage Censerie Monté
21/08/14 5 Trot 15 000€ 2 625m Montignac Urisso Tivoli 1'20"9 Attelé
21/08/14 1 Trot 17 000€ 2 600m Montignac Sephiro Flam 1'20"6 Monté
20/08/14 1 Trot 11 000€ 2 700m Plouescat Venus d'Aunay TNC Monté
19/08/14 4 Trot 13 000€ 2 100m Pornichet La Baule Bella Beconnaise 1'16"3 Monté
18/08/14 3 Mixte 16 000€ 3 025m Rochefort Sur Loire Tossari Monté
17/08/14 1 Trot 18 000€ 2 950m Mansle Ustang du Layon 1'16"6 Monté
16/08/14 D Trot 12 000€ 2 625m La Rochelle Vanda Monté
15/08/14 2 Trot 16 000€ 3 100m Vibraye Rami Prior Monté
13/08/14 D Trot 12 000€ 2 375m Dozule Beaute d'Asnois Monté
08/08/14 2 Trot 20 000€ 2 475m Villereal Saphir d'Idole 1'16"5 Monté
07/08/14 3 Trot 16 000€ 2 625m Montignac Ustang du Layon 1'27"2 Monté
06/08/14 1 Trot 13 000€ 2 775m Les Sables D'Olonne Voyou du Lerre 1'16"5 Monté
05/08/14 3 Trot 23 000€ 2 625m La Rochelle Sapeur d'Arclais 1'16"4 Monté
04/08/14 4 Mixte 14 000€ 2 975m Dinan Venus d'Aunay Monté
03/08/14 D Trot 11 000€ 2 750m La Ferte Vidame Viva du Leard Monté
31/07/14 3 Trot 23 000€ 2 650m La Rochelle Speed Pacha Monté lire

Après avoir patienté en retrait, a progressé au bout de la ligne opposée, puis a su très bien soutenir son effort jusqu'au bout.

30/07/14 D Trot 30 000€ 2 800m Les Sables D'Olonne Rosetown Monté
28/07/14 D Mixte 11 000€ 3 100m Plesse Voyou du Lerre Monté